H1 CPF 2 NER 2022 9 14 9 257 01 glonass133 H2 1403201 9133 40001 2022 9 14 0 0 0 2022 9 17 23 45 0 900 1 1 0 0 0 1 H9 10 0 59836 0.00000 0 15850866.482 9852480.115 17405502.825 10 0 59836 900.00000 0 13599913.456 9515895.749 19381528.519 10 0 59836 1800.00000 0 11110072.693 9346985.538 20981551.669 10 0 59836 2700.00000 0 8442948.118 9375611.132 22174432.410 10 0 59836 3600.00000 0 5666016.831 9620158.466 22936907.664 10 0 59836 4500.00000 0 2850048.047 10086654.531 23254048.851 10 0 59836 5400.00000 0 66389.415 10768418.593 23119560.018 10 0 59836 6300.00000 0 -2615767.583 11646263.798 22535910.144 10 0 59836 7200.00000 0 -5132030.264 12689242.048 21514296.370 10 0 59836 8100.00000 0 -7425246.153 13855902.316 20074437.998 10 0 59836 9000.00000 0 -9447641.978 15096010.845 18244204.213 10 0 59836 9900.00000 0 -11162571.188 16352662.000 16059081.752 10 0 59836 10800.00000 0 -12545797.209 17564691.723 13561491.866 10 0 59836 11700.00000 0 -13586258.802 18669292.299 10799969.073 10 0 59836 12600.00000 0 -14286285.553 19604718.084 7828217.267 10 0 59836 13500.00000 0 -14661254.767 20312967.480 4704061.415 10 0 59836 14400.00000 0 -14738704.767 20742327.032 1488315.578 10 0 59836 15300.00000 0 -14556942.786 20849668.958 -1756409.952 10 0 59836 16200.00000 0 -14163207.343 20602403.794 -4966938.150 10 0 59836 17100.00000 0 -13611464.150 19980004.376 -8080766.252 10 0 59836 18000.00000 0 -12959930.222 18975035.766 -11037292.698 10 0 59836 18900.00000 0 -12268432.510 17593646.856 -13779004.968 10 0 59836 19800.00000 0 -11595714.167 15855502.426 -16252604.252 10 0 59836 20700.00000 0 -10996803.555 13793158.368 -18410044.349 10 0 59836 21600.00000 0 -10520557.981 11450906.398 -20209464.409 10 0 59836 22500.00000 0 -10207486.279 8883136.847 -21615997.609 10 0 59836 23400.00000 0 -10087942.089 6152288.389 -22602440.516 10 0 59836 24300.00000 0 -10180763.573 3326470.439 -23149771.108 10 0 59836 25200.00000 0 -10492416.171 476857.290 -23247506.403 10 0 59836 26100.00000 0 -11016673.624 -2325037.813 -22893893.891 10 0 59836 27000.00000 0 -11734849.801 -5010095.998 -22095934.142 10 0 59836 27900.00000 0 -12616570.823 -7514220.991 -20869235.052 10 0 59836 28800.00000 0 -13621054.471 -9780754.305 -19237701.222 10 0 59836 29700.00000 0 -14698842.811 -11762578.696 -17233064.941 10 0 59836 30600.00000 0 -15793915.220 -13423824.207 -14894267.932 10 0 59836 31500.00000 0 -16846093.219 -14741107.561 -12266705.826 10 0 59836 32400.00000 0 -17793636.455 -15704255.117 -9401349.689 10 0 59836 33300.00000 0 -18575921.146 -16316480.853 -6353761.217 10 0 59836 34200.00000 0 -19136088.939 -16594013.460 -3183020.291 10 0 59836 35100.00000 0 -19423555.164 -16565189.373 49414.788 10 0 59836 36000.00000 0 -19396271.230 -16269050.650 3280892.757 10 0 59836 36900.00000 0 -19022646.125 -15753507.308 6448777.859 10 0 59836 37800.00000 0 -18283045.914 -15073141.599 9491658.259 10 0 59836 38700.00000 0 -17170807.751 -14286746.808 12350531.365 10 0 59836 39600.00000 0 -15692725.206 -13454704.119 14969943.257 10 0 59836 40500.00000 0 -13868983.298 -12636307.654 17299060.536 10 0 59836 41400.00000 0 -11732544.618 -11887150.092 19292654.141 10 0 59836 42300.00000 0 -9328010.747 -11256678.666 20911976.296 10 0 59836 43200.00000 0 -6710004.792 -10786024.247 22125513.907 10 0 59836 44100.00000 0 -3941140.737 -10506194.866 22909603.929 10 0 59836 45000.00000 0 -1089662.560 -10436709.946 23248898.759 10 0 59836 45900.00000 0 1773150.278 -10584733.163 23136672.435 10 0 59836 46800.00000 0 4575704.460 -10944741.183 22574961.250 10 0 59836 47700.00000 0 7248829.461 -11498743.186 21574535.386 10 0 59836 48600.00000 0 9728416.270 -12217043.025 20154701.233 10 0 59836 49500.00000 0 11957848.914 -13059513.084 18342937.223 10 0 59836 50400.00000 0 13890127.658 -13977327.170 16174369.185 10 0 59836 51300.00000 0 15489595.404 -14915080.184 13691094.486 10 0 59836 52200.00000 0 16733195.093 -15813205.570 10941367.242 10 0 59836 53100.00000 0 17611205.340 -16610588.509 7978660.069 10 0 59836 54000.00000 0 18127423.559 -17247264.000 4860620.476 10 0 59836 54900.00000 0 18298789.181 -17667084.961 1647942.502 10 0 59836 55800.00000 0 18154463.340 -17820246.360 -1596823.668 10 0 59836 56700.00000 0 17734404.769 -17665557.279 -4810499.954 10 0 59836 57600.00000 0 17087503.153 -17172363.438 -7930521.383 10 0 59836 58500.00000 0 16269350.175 -16322037.631 -10896164.325 10 0 59836 59400.00000 0 15339743.928 -15108974.060 -13649736.845 10 0 59836 60300.00000 0 14360033.551 -13541043.774 -16137707.080 10 0 59836 61200.00000 0 13390417.543 -11639491.586 -18311746.914 10 0 59836 62100.00000 0 12487310.716 -9438278.561 -20129670.459 10 0 59836 63000.00000 0 11700891.373 -6982897.597 -21556249.273 10 0 59836 63900.00000 0 11072932.161 -4328711.851 -22563888.948 10 0 59836 64800.00000 0 10635005.548 -1538885.491 -23133154.849 10 0 59836 65700.00000 0 10407138.629 1318007.000 -23253137.828 10 0 59836 66600.00000 0 10396972.810 4170593.579 -22921653.926 10 0 59836 67500.00000 0 10599462.456 6947431.385 -22145275.278 10 0 59836 68400.00000 0 10997124.013 9579734.961 -20939192.558 10 0 59836 69300.00000 0 11560824.066 12003993.731 -19326912.275 10 0 59836 70200.00000 0 12251072.417 14164371.353 -17339795.281 10 0 59836 71100.00000 0 13019765.307 16014788.824 -15016445.516 10 0 59836 72000.00000 0 13812305.245 17520606.253 -12401960.837 10 0 59836 72900.00000 0 14570008.323 18659834.947 -9547060.154 10 0 59836 73800.00000 0 15232697.926 19423830.830 -6507103.379 10 0 59836 74700.00000 0 15741375.997 19817441.671 -3341022.843 10 0 59836 75600.00000 0 16040859.741 19858603.181 -110186.366 10 0 59836 76500.00000 0 16082272.992 19577401.834 3122786.405 10 0 59836 77400.00000 0 15825287.392 19014644.372 6295231.767 10 0 59836 78300.00000 0 15240018.892 18219994.420 9345650.834 10 0 59836 79200.00000 0 14308499.434 17249754.767 12214896.413 10 0 59836 80100.00000 0 13025661.183 16164388.323 14847315.133 10 0 59836 81000.00000 0 11399790.967 15025881.798 17191823.057 10 0 59836 81900.00000 0 9452434.497 13895062.545 19202894.249 10 0 59836 82800.00000 0 7217752.769 12828980.915 20841443.381 10 0 59836 83700.00000 0 4741355.776 11878467.830 22075585.585 10 0 59836 84600.00000 0 2078660.260 11085969.871 22881258.938 10 0 59836 85500.00000 0 -707161.855 10483752.763 23242697.504 10 0 59837 0.00000 0 -3547560.546 10092548.830 23152745.599 10 0 59837 900.00000 0 -6371214.558 9920705.392 22613006.622 10 0 59837 1800.00000 0 -9106757.114 9963870.908 21633823.117 10 0 59837 2700.00000 0 -11685513.221 10205232.049 20234087.429 10 0 59837 3600.00000 0 -14044131.564 10616293.067 18440885.634 10 0 59837 4500.00000 0 -16127003.133 11158165.141 16288980.655 10 0 59837 5400.00000 0 -17888365.548 11783311.989 13820143.635 10 0 59837 6300.00000 0 -19294005.030 12437678.444 11082345.708 10 0 59837 7200.00000 0 -20322484.522 13063112.084 8128825.482 10 0 59837 8100.00000 0 -20965846.301 13599975.180 5017050.204 10 0 59837 9000.00000 0 -21229759.568 13989835.667 1807591.084 10 0 59837 9900.00000 0 -21133106.989 14178122.145 -1437064.574 10 0 59837 10800.00000 0 -20707028.203 14116629.171 -4653740.353 10 0 59837 11700.00000 0 -19993461.493 13765765.317 -7779811.732 10 0 59837 12600.00000 0 -19043246.299 13096447.464 -10754435.567 10 0 59837 13500.00000 0 -17913868.048 12091559.964 -13519742.950 10 0 59837 14400.00000 0 -16666941.827 10746915.999 -16021971.219 10 0 59837 15300.00000 0 -15365542.416 9071679.868 -18212512.361 10 0 59837 16200.00000 0 -14071494.238 7088231.953 -20048857.180 10 0 59837 17100.00000 0 -12842736.065 4831481.749 -21495417.011 10 0 59837 18000.00000 0 -11730871.619 2347657.727 -22524207.526 10 0 59837 18900.00000 0 -10779008.720 -307375.397 -23115382.175 10 0 59837 19800.00000 0 -10019977.060 -3070201.865 -23257605.985 10 0 59837 20700.00000 0 -9474998.283 -5872255.750 -22948263.538 10 0 59837 21600.00000 0 -9152862.808 -8642438.055 -22193498.195 10 0 59837 22500.00000 0 -9049646.422 -11309841.898 -21008082.726 10 0 59837 23400.00000 0 -9148977.091 -13806473.348 -19415124.568 10 0 59837 24300.00000 0 -9422839.464 -16069856.080 -17445611.872 10 0 59837 25200.00000 0 -9832882.236 -18045412.872 -15137809.298 10 0 59837 26100.00000 0 -10332172.691 -19688526.291 -12536515.229 10 0 59837 27000.00000 0 -10867324.167 -20966194.177 -9692194.578 10 0 59837 27900.00000 0 -11380906.805 -21858212.455 -6660003.541 10 0 59837 28800.00000 0 -11814040.093 -22357837.093 -3498724.867 10 0 59837 29700.00000 0 -12109058.142 -22471898.656 -269633.786 10 0 59837 30600.00000 0 -12212135.602 -22220365.624 2964683.876 10 0 59837 31500.00000 0 -12075763.575 -21635375.266 6141538.790 10 0 59837 32400.00000 0 -11660971.166 -20759773.199 9199347.441 10 0 59837 33300.00000 0 -10939198.810 -19645223.038 12078820.567 10 0 59837 34200.00000 0 -9893743.972 -18349965.399 14724107.934 10 0 59837 35100.00000 0 -8520717.535 -16936320.040 17083877.639 10 0 59837 36000.00000 0 -6829469.423 -15468035.518 19112309.346 10 0 59837 36900.00000 0 -4842464.090 -14007597.126 20769982.476 10 0 59837 37800.00000 0 -2594609.321 -12613605.478 22024642.428 10 0 59837 38700.00000 0 -132064.332 -11338335.235 22851830.132 10 0 59837 39600.00000 0 2489425.038 -10225575.952 23235362.694 10 0 59837 40500.00000 0 5206596.703 -9308845.376 23167655.672 10 0 59837 41400.00000 0 7951063.923 -8610050.053 22649880.257 10 0 59837 42300.00000 0 10651930.105 -8138649.636 21691951.676 10 0 59837 43200.00000 0 13238519.252 -7891360.258 20312348.176 10 0 59837 44100.00000 0 15643109.273 -7852409.866 18537763.085 10 0 59837 45000.00000 0 17803554.626 -7994335.207 16402595.669 10 0 59837 45900.00000 0 19665689.056 -8279287.275 13948289.705 10 0 59837 46800.00000 0 21185407.819 -8660790.355 11222531.796 10 0 59837 47700.00000 0 22330341.871 -9085880.290 8278324.556 10 0 59837 48600.00000 0 23081053.438 -9497531.212 5172952.545 10 0 59837 49500.00000 0 23431702.466 -9837267.269 1966861.324 10 0 59837 50400.00000 0 23390155.756 -10047847.695 -1277527.847 10 0 59837 51300.00000 0 22977534.422 -10075910.176 -4497043.611 10 0 59837 52200.00000 0 22227219.228 -9874459.025 -7629005.401 10 0 59837 53100.00000 0 21183356.603 -9405091.335 -10612454.053 10 0 59837 54000.00000 0 19898929.449 -8639865.487 -13389347.048 10 0 59837 54900.00000 0 18433475.295 -7562731.805 -15905694.089 10 0 59837 55800.00000 0 16850549.249 -6170464.044 -18112610.160 10 0 59837 56700.00000 0 15215039.638 -4473051.782 -19967265.334 10 0 59837 57600.00000 0 13590450.035 -2493536.738 -21433712.970 10 0 59837 58500.00000 0 12036262.284 -267299.752 -22483580.666 10 0 59837 59400.00000 0 10605491.094 2159171.890 -23096611.396 10 0 59837 60300.00000 0 9342532.117 4729985.363 -23261045.362 10 0 59837 61200.00000 0 8281392.667 7381940.584 -22973836.222 10 0 59837 62100.00000 0 7444377.745 10046938.775 -22240698.635 10 0 59837 63000.00000 0 6841284.704 12654601.611 -21075987.085 10 0 59837 63900.00000 0 6469138.599 15134992.671 -19502409.102 10 0 59837 64800.00000 0 6312477.551 17421328.960 -17550578.884 10 0 59837 65700.00000 0 6344174.673 19452570.890 -15258420.137 10 0 59837 66600.00000 0 6526760.816 21175784.015 -12670429.724 10 0 59837 67500.00000 0 6814191.616 22548175.498 -9836816.124 10 0 59837 68400.00000 0 7153983.935 23538721.631 -6812529.044 10 0 59837 69300.00000 0 7489631.427 24129319.469 -3656198.589 10 0 59837 70200.00000 0 7763197.441 24315415.695 -429004.115 10 0 59837 71100.00000 0 7917975.942 24106086.974 2806505.783 10 0 59837 72000.00000 0 7901108.302 23523568.928 5987619.602 10 0 59837 72900.00000 0 7666045.662 22602253.976 9052672.577 10 0 59837 73800.00000 0 7174752.845 21387199.985 11942236.602 10 0 59837 74700.00000 0 6399560.613 19932212.152 14600267.568 10 0 59837 75600.00000 0 5324587.587 18297578.197 16975188.307 10 0 59837 76500.00000 0 3946670.959 16547551.207 19020886.467 10 0 59837 77400.00000 0 2275765.575 14747685.026 20697608.251 10 0 59837 78300.00000 0 334792.951 12962133.129 21972730.979 10 0 59837 79200.00000 0 -1841055.394 11251023.369 22821399.679 10 0 59837 80100.00000 0 -4205533.224 9668017.939 23227015.315 10 0 59837 81000.00000 0 -6703024.864 8258160.170 23181565.052 10 0 59837 81900.00000 0 -9270632.250 7056097.954 22685787.696 10 0 59837 82800.00000 0 -11840578.490 6084758.062 21749170.463 10 0 59837 83700.00000 0 -14342829.292 5354526.900 20389776.294 10 0 59837 84600.00000 0 -16707824.107 4862972.151 18633904.042 10 0 59837 85500.00000 0 -18869203.642 4595117.210 16515587.124 10 0 59838 0.00000 0 -20766419.986 4524256.969 14075939.602 10 0 59838 900.00000 0 -22347121.057 4613280.599 11362360.212 10 0 59838 1800.00000 0 -23569206.559 4816445.431 8427612.697 10 0 59838 2700.00000 0 -24402472.124 5081526.359 5328795.758 10 0 59838 3600.00000 0 -24829769.342 5352249.285 2126226.126 10 0 59838 4500.00000 0 -24847633.528 5570904.391 -1117744.094 10 0 59838 5400.00000 0 -24466352.391 5681027.273 -4339951.604 10 0 59838 6300.00000 0 -23709472.824 5630032.797 -7477662.647 10 0 59838 7200.00000 0 -22612767.069 5371688.577 -10469804.756 10 0 59838 8100.00000 0 -21222702.586 4868321.828 -13258164.322 10 0 59838 9000.00000 0 -19594481.126 4092664.901 -15788525.710 10 0 59838 9900.00000 0 -17789730.669 3029260.477 -18011728.907 10 0 59838 10800.00000 0 -15873948.393 1675366.310 -19884624.904 10 0 59838 11700.00000 0 -13913802.907 41320.868 -21370910.306 10 0 59838 12600.00000 0 -11974409.527 -1849645.751 -22441825.414 10 0 59838 13500.00000 0 -10116692.810 -3962147.893 -23076703.033 10 0 59838 14400.00000 0 -8394946.334 -6249896.707 -23263358.388 10 0 59838 15300.00000 0 -6854690.905 -8657416.514 -22998313.649 10 0 59838 16200.00000 0 -5530919.369 -11122153.810 -22286853.819 10 0 59838 17100.00000 0 -4446799.683 -13576891.398 -21142913.834 10 0 59838 18000.00000 0 -3612888.621 -15952367.581 -19588799.789 10 0 59838 18900.00000 0 -3026887.050 -18179992.123 -17654750.187 10 0 59838 19800.00000 0 -2673945.131 -20194546.842 -15378345.895 10 0 59838 20700.00000 0 -2527503.073 -21936759.231 -12803780.271 10 0 59838 21600.00000 0 -2550630.724 -23355642.973 -9981003.352 10 0 59838 22500.00000 0 -2697808.733 -24410508.717 -6964756.330 10 0 59838 23400.00000 0 -2917075.654 -25072562.098 -3813514.672 10 0 59838 24300.00000 0 -3152450.185 -25326023.097 -588359.885 10 0 59838 25200.00000 0 -3346526.288 -25168720.440 2648198.642 10 0 59838 26100.00000 0 -3443131.729 -24612136.706 5833429.207 10 0 59838 27000.00000 0 -3389937.895 -23680902.271 8905587.823 10 0 59838 27900.00000 0 -3140910.680 -22411759.316 11805109.595 10 0 59838 28800.00000 0 -2658498.998 -20852039.184 14475758.631 10 0 59838 29700.00000 0 -1915468.166 -19057716.235 16865714.575 10 0 59838 30600.00000 0 -896300.214 -17091119.085 18928575.075 10 0 59838 31500.00000 0 401898.816 -15018394.294 20624254.990 10 0 59838 32400.00000 0 1969024.160 -12906827.715 21919765.239 10 0 59838 33300.00000 0 3782147.687 -10822134.638 22789856.377 10 0 59838 34200.00000 0 5806237.889 -8825831.223 23217514.373 10 0 59838 35100.00000 0 7995396.516 -6972796.304 23194298.837 10 0 59838 36000.00000 0 10294562.300 -5309124.871 22720516.726 10 0 59838 36900.00000 0 12641612.516 -3870362.579 21805227.484 10 0 59838 37800.00000 0 14969776.363 -2680194.868 20466078.686 10 0 59838 38700.00000 0 17210260.748 -1749645.432 18728974.377 10 0 59838 39600.00000 0 19294979.591 -1076817.650 16627581.485 10 0 59838 40500.00000 0 21159272.990 -647189.769 14202682.947 10 0 59838 41400.00000 0 22744502.427 -434451.277 11501389.227 10 0 59838 42300.00000 0 24000412.761 -401845.016 8576223.125 10 0 59838 43200.00000 0 24887161.294 -503957.831 5484095.442 10 0 59838 44100.00000 0 25376927.852 -688883.328 2285191.660 10 0 59838 45000.00000 0 25455037.365 -900664.165 -958208.018 10 0 59838 45900.00000 0 25120547.153 -1081909.136 -4182951.368 10 0 59838 46800.00000 0 24386273.838 -1176472.675 -7326254.621 10 0 59838 47700.00000 0 23278258.822 -1132081.698 -10326935.215 10 0 59838 48600.00000 0 21834695.233 -902796.944 -13126611.608 10 0 59838 49500.00000 0 20104362.197 -451203.261 -15670845.818 10 0 59838 50400.00000 0 18144633.214 249764.944 -17910205.622 10 0 59838 51300.00000 0 16019143.267 1215441.052 -19801225.467 10 0 59838 52200.00000 0 13795213.370 2448545.295 -21307247.481 10 0 59838 53100.00000 0 11541141.155 3938842.893 -22399126.652 10 0 59838 54000.00000 0 9323471.089 5663355.807 -23055787.292 10 0 59838 54900.00000 0 7204358.155 7587119.275 -23264620.972 10 0 59838 55800.00000 0 5239134.468 9664451.434 -23021719.313 10 0 59838 56700.00000 0 3474179.135 11840683.055 -22331938.179 10 0 59838 57600.00000 0 1945178.632 14054275.393 -21208793.014 10 0 59838 58500.00000 0 675848.484 16239238.122 -19674188.058 10 0 59838 59400.00000 0 -322832.477 18327747.059 -17757985.235 10 0 59838 60300.00000 0 -1052845.318 20252853.275 -15497421.223 10 0 59838 61200.00000 0 -1528804.242 21951171.315 -12936384.079 10 0 59838 62100.00000 0 -1777095.268 23365435.281 -10124563.183 10 0 59838 63000.00000 0 -1834517.902 24446816.862 -7116488.629 10 0 59838 63900.00000 0 -1746487.907 25156909.274 -3970478.331 10 0 59838 64800.00000 0 -1564877.520 25469294.821 -747512.779 10 0 59838 65700.00000 0 -1345584.485 25370630.957 2489941.188 10 0 59838 66600.00000 0 -1145932.553 24861209.646 5679135.115 10 0 59838 67500.00000 0 -1022013.172 23954966.603 8758249.230 10 0 59838 68400.00000 0 -1026080.506 22678939.959 11667585.211 10 0 59838 69300.00000 0 -1204109.725 21072200.568 14350718.581 10 0 59838 70200.00000 0 -1593621.735 19184298.178 16755588.785 10 0 59838 71100.00000 0 -2221866.451 17073287.662 18835506.176 10 0 59838 72000.00000 0 -3104441.870 14803416.889 20550056.662 10 0 59838 72900.00000 0 -4244408.089 12442571.864 21865886.807 10 0 59838 73800.00000 0 -5631934.937 10059584.749 22757354.337 10 0 59838 74700.00000 0 -7244499.664 7721516.184 23207031.419 10 0 59838 75600.00000 0 -9047628.360 5491024.310 23206050.815 10 0 59838 76500.00000 0 -10996152.080 3423929.498 22754287.804 10 0 59838 77400.00000 0 -13035927.042 1567075.825 21860373.651 10 0 59838 78300.00000 0 -15105948.777 -43421.875 20541539.586 10 0 59838 79200.00000 0 -17140773.284 -1383472.434 18823293.270 10 0 59838 80100.00000 0 -19073144.903 -2441790.200 16738933.035 10 0 59838 81000.00000 0 -20836721.520 -3220131.756 14328908.327 10 0 59838 81900.00000 0 -22368782.986 -3732977.734 11640037.910 10 0 59838 82800.00000 0 -23612808.767 -4006673.433 8724600.572 10 0 59838 83700.00000 0 -24520815.895 -4078064.957 5639315.758 10 0 59838 84600.00000 0 -25055358.006 -3992689.246 2444234.174 10 0 59838 85500.00000 0 -25191100.309 -3802595.484 -798439.388 10 0 59839 0.00000 0 -24915903.336 -3563891.426 -4025566.910 10 0 59839 900.00000 0 -24231368.861 -3334119.880 -7174318.478 10 0 59839 1800.00000 0 -23152825.088 -3169578.358 -10183404.243 10 0 59839 2700.00000 0 -21708751.206 -3122696.605 -12994277.617 10 0 59839 3600.00000 0 -19939666.101 -3239584.764 -15552280.888 10 0 59839 4500.00000 0 -17896528.513 -3557856.995 -17807711.892 10 0 59839 5400.00000 0 -15638716.546 -4104823.460 -19716790.380 10 0 59839 6300.00000 0 -13231671.976 -4896127.603 -21242505.346 10 0 59839 7200.00000 0 -10744308.656 -5934886.404 -22355327.256 10 0 59839 8100.00000 0 -8246293.666 -7211369.880 -23033772.119 10 0 59839 9000.00000 0 -5805314.613 -8703233.232 -23264807.489 10 0 59839 9900.00000 0 -3484446.626 -10376291.693 -23044093.521 10 0 59839 10800.00000 0 -1339727.707 -12185805.585 -22376055.584 10 0 59839 11700.00000 0 581957.926 -14078221.788 -21273787.891 10 0 59839 12600.00000 0 2244602.066 -15993298.963 -19758790.812 10 0 59839 13500.00000 0 3624330.525 -17866528.075 -17860547.462 10 0 59839 14400.00000 0 4710146.566 -19631747.590 -15615947.972 10 0 59839 15300.00000 0 5504130.720 -21223844.689 -13068572.662 10 0 59839 16200.00000 0 6021090.561 -22581430.261 -10267847.803 10 0 59839 17100.00000 0 6287676.826 -23649376.623 -7268089.953 10 0 59839 18000.00000 0 6341004.268 -24381112.409 -4127457.088 10 0 59839 18900.00000 0 6226836.207 -24740579.067 -906826.368 10 0 59839 19800.00000 0 5997409.886 -24703767.538 2331380.154 10 0 59839 20700.00000 0 5708994.527 -24259770.732 5524399.407 10 0 59839 21600.00000 0 5419285.246 -23411307.716 8610337.882 10 0 59839 22500.00000 0 5184742.746 -22174697.389 11529365.782 10 0 59839 23400.00000 0 5057990.943 -20579282.222 14224871.888 10 0 59839 24300.00000 0 5085382.297 -18666325.438 16644557.150 10 0 59839 25200.00000 0 5304833.630 -16487426.761 18741446.159 10 0 59839 26100.00000 0 5744024.011 -14102521.872 20474797.213 10 0 59839 27000.00000 0 6419031.238 -11577547.929 21810893.608 10 0 59839 27900.00000 0 7333465.289 -8981871.232 22723701.060 10 0 59839 28800.00000 0 8478136.439 -6385583.174 23195378.470 10 0 59839 29700.00000 0 9831273.592 -3856775.985 23216632.017 10 0 59839 30600.00000 0 11359285.473 -1458910.750 22786905.277 10 0 59839 31500.00000 0 13018034.538 751613.297 21914401.081 10 0 59839 32400.00000 0 14754572.059 2727587.562 20615933.818 10 0 59839 33300.00000 0 16509263.174 4432732.532 18916614.076 10 0 59839 34200.00000 0 18218214.026 5842973.449 16849370.696 10 0 59839 35100.00000 0 19815899.954 6947200.092 14454318.528 10 0 59839 36000.00000 0 21237884.711 7747478.993 11777983.319 10 0 59839 36900.00000 0 22423516.230 8258709.451 8872398.275 10 0 59839 37800.00000 0 23318484.951 8507738.281 5794089.663 10 0 59839 38700.00000 0 23877136.096 8531971.337 2602971.330 10 0 59839 39600.00000 0 24064437.329 8377541.338 -638829.672 10 0 59839 40500.00000 0 23857517.757 8097110.699 -3868192.626 10 0 59839 41400.00000 0 23246712.369 7747403.766 -7022242.950 10 0 59839 42300.00000 0 22236067.108 7386574.465 -10039586.784 10 0 59839 43200.00000 0 20843282.883 7071522.425 -12861515.138 10 0 59839 44100.00000 0 19099100.741 6855272.627 -15433153.105 10 0 59839 45000.00000 0 17046154.315 6784530.728 -17704530.960 10 0 59839 45900.00000 0 14737338.146 6897518.328 -19631555.963 10 0 59839 46800.00000 0 12233760.839 7222180.198 -21176866.001 10 0 59839 47700.00000 0 9602369.246 7774839.341 -22310548.850 10 0 59839 48600.00000 0 6913343.296 8559356.489 -23010713.854 10 0 59839 49500.00000 0 4237370.151 9566829.142 -23263905.928 10 0 59839 50400.00000 0 1642911.011 10775842.423 -23065354.868 10 0 59839 51300.00000 0 -806426.446 12153260.850 -22419056.274 10 0 59839 52200.00000 0 -3054301.879 13655527.572 -21337683.450 10 0 59839 53100.00000 0 -5053743.404 15230416.502 -19842332.750 10 0 59839 54000.00000 0 -6768850.450 16819164.032 -17962107.868 10 0 59839 54900.00000 0 -8176029.461 18358891.411 -15733551.302 10 0 59839 55800.00000 0 -9264712.907 19785216.714 -13199934.117 10 0 59839 56700.00000 0 -10037533.622 21034947.627 -10410417.551 10 0 59839 57600.00000 0 -10509948.982 22048742.826 -7419102.366 10 0 59839 58500.00000 0 -10709332.150 22773630.894 -4283984.043 10 0 59839 59400.00000 0 -10673569.895 23165281.857 -1065833.616 10 0 59839 60300.00000 0 -10449226.688 23189936.248 2172974.615 10 0 59839 61200.00000 0 -10089352.864 22825910.827 5369666.079 10 0 59839 62100.00000 0 -9651029.554 22064617.872 8462276.714 10 0 59839 63000.00000 0 -9192753.850 20911054.755 11390848.449 10 0 59839 63900.00000 0 -8771774.393 19383742.760 14098586.483 10 0 59839 64800.00000 0 -8441489.611 17514116.891 16532956.319 10 0 59839 65700.00000 0 -8249018.160 15345390.956 18646699.689 10 0 59839 66600.00000 0 -8233043.991 12930944.162 20398749.939 10 0 59839 67500.00000 0 -8422027.106 10332295.176 21755029.480 10 0 59839 68400.00000 0 -8832855.819 7616746.636 22689114.051 10 0 59839 69300.00000 0 -9469998.062 4854796.917 23182750.911 10 0 59839 70200.00000 0 -10325188.584 2117425.544 23226220.782 10 0 59839 71100.00000 0 -11377666.554 -526635.984 22818536.161 10 0 59839 72000.00000 0 -12594955.176 -3013535.219 21967471.473 10 0 59839 72900.00000 0 -13934152.132 -5286722.904 20689423.708 10 0 59839 73800.00000 0 -15343678.230 -7299069.732 19009105.211 10 0 59839 74700.00000 0 -16765411.981 -9014587.654 16959073.585 10 0 59839 75600.00000 0 -18137121.347 -10409684.079 14579106.819 10 0 59839 76500.00000 0 -19395090.834 -11473896.603 11915434.909 10 0 59839 77400.00000 0 -20476833.311 -12210077.609 9019842.400 10 0 59839 78300.00000 0 -21323771.845 -12634021.348 5948659.029 10 0 59839 79200.00000 0 -21883777.643 -12773549.735 2761658.273 10 0 59839 80100.00000 0 -22113455.855 -12667096.209 -479114.149 10 0 59839 81000.00000 0 -21980081.561 -12361848.524 -3710558.123 10 0 59839 81900.00000 0 -21463102.947 -11911530.343 -6869758.518 10 0 59839 82800.00000 0 -20555147.207 -11373916.925 -9895220.601 10 0 59839 83700.00000 0 -19262485.939 -10808191.598 -12728076.232 10 0 59839 84600.00000 0 -17604939.912 -10272256.361 -15313236.338 10 0 59839 85500.00000 0 -15615227.113 -9820111.652 -17600466.333 99